Location: ?
(35.2180°N, 139.6392°E)
Time: 18:49:25
(UTC+00:00)

CZ-2C R/B - Pass Details

Date: 05 August 2024
Orbit: 782 x 869 km, 98.3° (Epoch: 18 September)

Event Time Altitude Azimuth Distance (km) Brightness Sun altitude
Exits shadow 15:57:53 32° 64° (ENE) 1,444 4.1 -35.5°
Drops below altitude 10° 16:02:27 10° 9° (N) 2,488 5.9 -35.1°
Sets 16:05:01 0° 359° (N) 3,416 6.7 -34.9°
